Location: Bosmont
(49.7318°N, 3.8587°E)
Time: 18:25:08
(UTC+00:00)

Feng Yun 1-1 Rocket - Pass Details

Date: 08 February 2023
Orbit: 830 x 933 km, 99.1° (Epoch: 26 March)

Event Time Altitude Azimuth Distance (km) Brightness Sun altitude
Rises 18:15:42 0° 144° (SE) 3,426 7.1 -14.0°
Reaches altitude 10° 18:18:09 10° 139° (SE) 2,480 6.3 -14.4°
Maximum altitude 18:23:23 49° 66° (ENE) 1,084 4.4 -15.3°
Drops below altitude 10° 18:28:35 10° 354° (N) 2,455 6.6 -16.1°
Sets 18:30:59 0° 349° (N) 3,389 7.4 -16.5°
